Skip Page Navigation
NASA JPL Caltech
NASA Logo - Jet Propulsion Laboratory + View the NASA Portal
+ Near-Earth Object (NEO) Program
Search JPL
JPL Home Earth Solar System Stars & Galaxies Technology
JPL Solar System Dynamics
BODIES ORBITS EPHEMERIDES TOOLS PHYSICAL DATA DISCOVERY FAQ SITE MAP
JPL Small-Body Database Browser
Search: [ help ]  
52334 Oberammergau (1992 FS3)
Classification: Main-belt Asteroid          SPK-ID: 2052334
Ephemeris | Orbit Diagram | Orbital Elements | Physical Parameters | Discovery Circumstances | Close-Approach Data ]

[ show orbit diagram ]
Orbital Elements at Epoch 2456800.5 (2014-May-23.0) TDB
Reference: JPL 9 (heliocentric ecliptic J2000)
 Element Value Uncertainty (1-sigma)   Units 
e .1262974322772796 5.9018e-08  
a 2.404365822128802 1.8063e-08 AU
q 2.100700592538684 1.4207e-07 AU
i 3.020421157201386 6.912e-06 deg
node 30.51803607686339 0.0001257 deg
peri 69.72317302253582 0.00013103 deg
M 48.59887051951941 3.3416e-05 deg
tp 2456616.667234360396
(2013-Nov-20.16723436)
0.0001267 JED
period 1361.75583759044
3.73
1.5346e-05
4.202e-08
d
yr
n .2643645726072321 2.9792e-09 deg/d
Q 2.70803105171892 2.0345e-08 AU
  Orbit Determination Parameters
   # obs. used (total)      530  
   data-arc span      8040 days (22.01 yr)  
   first obs. used      1992-03-30  
   last obs. used      2014-04-04  
   planetary ephem.      DE431  
   SB-pert. ephem.      SB431-BIG16  
   condition code      0  
   fit RMS      .60313  
   data source      ORB  
   producer      Otto Matic  
   solution date      2014-Apr-17 14:56:19  

Additional Information
 Earth MOID = 1.11935 AU 
 T_jup = 3.511 
[ show covariance matrix ]

Ephemeris | Orbit Diagram | Orbital Elements | Physical Parameters | Discovery Circumstances | Close-Approach Data ]

Physical Parameter Table
Parameter Symbol Value Units Sigma Reference Notes
absolute magnitude H 15.3 mag n/a MPO270399  

52334 Oberammergau           Discovered 1992 Mar. 30 by F. Börngen at Tautenburg.
Oberammergau, situated in the Bavarian Alps, is the festival place of a famous Passion Play, according to tradition held every 10 years since 1634. It is produced entirely with local villagers taking all the parts and singing in the chorus.
NOTE: some special characters may not display properly (any characters within {} are an attempt to place the proper accent above a character)
Reference: 20031110/MPCPages.arcLast Updated: 2003-11-12

[ show close-approach data ]
Alternate Designations
 1992 FS3 = 1996 HJ9 = 1996 HX26 = 2001 QJ217 
Ephemeris | Orbit Diagram | Orbital Elements | Physical Parameters | Discovery Circumstances | Close-Approach Data ]
ABOUT SSD CREDITS/AWARDS PRIVACY/COPYRIGHT GLOSSARY LINKS
FirstGov 2014-Apr-25 09:57 UT
(server date/time)  
NASA Home Page
Site Manager:   Donald K. Yeomans
Webmaster  Alan B. Chamberlin